Location: Kawakawa
(35.3830°S, 174.0670°E)
Time: 03:42:59
(UTC+13:00)

Altair - Pass Details

Date: 12 December 2019
Orbit: 1502 x 1682 km, 47.2° (Epoch: 23 January)

Event Time Altitude Azimuth Distance (km) Brightness Sun altitude
Rises 10:22:21 0° 295° (WNW) 4,748 9.7 50.3°
Reaches altitude 10° 10:25:24 10° 292° (WNW) 3,791 9.3 50.9°
Maximum altitude 10:35:05 69° 209° (SSW) 1,735 8.5 52.9°
Drops below altitude 10° 10:45:11 10° 125° (SE) 3,940 10.2 54.9°
Sets 10:48:26 0° 122° (ESE) 4,942 10.5 55.5°
